{"data":{"norad_id":43717,"intl_designator":"2018-095A","name":"MOHAMMED VI-B","alt_names":[],"object_type":"PAYLOAD","status":"ACTIVE","operator":null,"country":"MA","launch_date":"2018-11-21","launch_site_code":"FRGUI","launch_vehicle":null,"mission":null,"orbit_class":"UNKNOWN","rcs_meters":null,"size_class":null,"mass_kg":null,"dimensions":null,"purposes":[],"wikipedia_slug":null,"has_3d_model":false,"image_url":null,"decayed_at":null,"tle_current":{"epoch":"2026-09-20T03:37:45.483168Z","epoch_age_seconds":85055,"freshness":"FRESH","line1":"1 43717U 18095A   26263.15122087  .00000145  00000+0  27639-4 0  9990","line2":"2 43717  97.9474 334.1242 0001258 101.8003 258.3349 14.77097114422207","mean_motion":14.77097114,"eccentricity":0.0001258,"inclination_deg":97.9474,"raan_deg":334.1242,"arg_perigee_deg":101.8003,"mean_anomaly_deg":258.3349,"bstar":2.7639e-5,"rev_number":42220,"period_min":97.48851218729,"perigee_km":637.61944507945,"apogee_km":639.38483148664,"semimajor_km":7016.639138283,"source":"CELESTRAK","updated_at":"2026-09-20T09:00:14.398184Z"}}}